Time,TemperatureF,DewpointF,PressureIn,WindDirection,WindDirectionDegrees,WindSpeedMPH,WindSpeedGustMPH,Humidity,HourlyPrecipIn,Conditions,Clouds,dailyrainin,SolarRadiationWatts/m^2,SoftwareType,DateUTC
2017-06-28 00:02:00,73.8,39.6,29.88,East,96,3.8,4.9,29,0.00,,,0.00,0.00,Weather logger V3.1.,2017-06-28 07:02:00,
2017-06-28 00:07:00,73.6,39.4,29.88,ESE,117,0.9,2.5,29,0.00,,,0.00,0.00,Weather logger V3.1.,2017-06-28 07:07:00,
2017-06-28 00:12:00,73.4,39.2,29.88,ESE,107,1.3,2.5,29,0.00,,,0.00,0.00,Weather logger V3.1.,2017-06-28 07:12:00,
2017-06-28 00:17:00,73.0,39.0,29.88,ESE,109,0.2,2.5,29,0.00,,,0.00,0.00,Weather logger V3.1.,2017-06-28 07:17:00,
2017-06-28 00:22:00,72.9,39.7,29.88,East,86,4.5,4.9,30,0.00,,,0.00,0.00,Weather logger V3.1.,2017-06-28 07:22:00,
2017-06-28 00:27:00,72.7,40.3,29.88,SE,136,0.0,0.0,31,0.00,,,0.00,0.00,Weather logger V3.1.,2017-06-28 07:27:00,
2017-06-28 00:32:00,72.3,40.1,29.88,ESE,109,4.0,4.9,31,0.00,,,0.00,0.00,Weather logger V3.1.,2017-06-28 07:32:00,
2017-06-28 00:38:00,72.1,40.6,29.88,ESE,112,1.8,2.5,32,0.00,,,0.00,0.00,Weather logger V3.1.,2017-06-28 07:38:00,
2017-06-28 00:43:00,71.8,41.2,29.88,SE,142,0.9,2.5,33,0.00,,,0.00,0.00,Weather logger V3.1.,2017-06-28 07:43:00,
2017-06-28 00:48:00,71.4,42.4,29.88,SE,132,1.3,2.5,35,0.00,,,0.00,0.00,Weather logger V3.1.,2017-06-28 07:48:00,
2017-06-28 00:53:00,71.2,43.0,29.88,SE,128,0.7,2.5,36,0.00,,,0.00,0.00,Weather logger V3.1.,2017-06-28 07:53:00,
2017-06-28 00:54:00,71.2,43.7,29.88,SSE,149,0.0,0.0,37,0.00,,,0.00,0.00,Weather logger V3.1.,2017-06-28 07:54:00,
2017-06-28 00:59:00,70.9,44.1,29.88,ESE,114,0.7,2.5,38,0.00,,,0.00,0.00,Weather logger V3.1.,2017-06-28 07:59:00,
2017-06-28 01:04:00,70.5,45.1,29.88,SSE,158,0.0,0.0,40,0.00,,,0.00,0.00,Weather logger V3.1.,2017-06-28 08:04:00,
2017-06-28 01:10:00,70.2,46.0,29.88,SE,138,1.3,2.5,42,0.00,,,0.00,0.00,Weather logger V3.1.,2017-06-28 08:10:00,
2017-06-28 01:15:00,69.8,46.4,29.88,SSE,152,0.0,0.0,43,0.00,,,0.00,0.00,Weather logger V3.1.,2017-06-28 08:15:00,
2017-06-28 01:20:00,69.4,47.3,29.88,SE,139,0.2,2.5,45,0.00,,,0.00,0.00,Weather logger V3.1.,2017-06-28 08:20:00,
2017-06-28 01:25:00,69.3,47.1,29.88,SSE,149,0.0,0.0,45,0.00,,,0.00,0.00,Weather logger V3.1.,2017-06-28 08:25:00,
2017-06-28 01:30:00,68.9,47.8,29.88,SE,135,0.9,2.5,47,0.00,,,0.00,0.00,Weather logger V3.1.,2017-06-28 08:30:00,
2017-06-28 01:35:00,68.7,48.2,29.88,ESE,122,1.6,2.5,48,0.00,,,0.00,0.00,Weather logger V3.1.,2017-06-28 08:35:00,
2017-06-28 01:40:00,68.4,48.0,29.88,SE,129,1.3,2.5,48,0.00,,,0.00,0.00,Weather logger V3.1.,2017-06-28 08:40:00,
2017-06-28 01:43:00,68.4,48.6,29.88,SE,130,0.9,2.5,49,0.00,,,0.00,0.00,Weather logger V3.1.,2017-06-28 08:43:00,
2017-06-28 01:48:00,68.2,48.9,29.88,ESE,116,6.3,7.6,50,0.00,,,0.00,0.00,Weather logger V3.1.,2017-06-28 08:48:00,
2017-06-28 01:53:00,68.0,47.7,29.88,East,95,4.5,7.6,48,0.00,,,0.00,0.00,Weather logger V3.1.,2017-06-28 08:53:00,
2017-06-28 01:58:00,67.8,45.1,29.88,ESE,110,1.8,2.5,44,0.00,,,0.00,0.00,Weather logger V3.1.,2017-06-28 08:58:00,
2017-06-28 02:03:00,67.8,43.9,29.88,East,79,3.8,7.6,42,0.00,,,0.00,0.00,Weather logger V3.1.,2017-06-28 09:03:00,
2017-06-28 02:08:00,67.8,43.3,29.88,ESE,114,2.9,4.9,41,0.00,,,0.00,0.00,Weather logger V3.1.,2017-06-28 09:08:00,
2017-06-28 02:14:00,67.8,43.3,29.88,ESE,111,0.7,2.5,41,0.00,,,0.00,0.00,Weather logger V3.1.,2017-06-28 09:14:00,
2017-06-28 02:19:00,67.8,43.9,29.89,East,99,2.5,4.9,42,0.00,,,0.00,0.00,Weather logger V3.1.,2017-06-28 09:19:00,
2017-06-28 02:24:00,67.8,44.6,29.89,East,96,2.9,4.9,43,0.00,,,0.00,0.00,Weather logger V3.1.,2017-06-28 09:24:00,
2017-06-28 02:29:00,67.8,44.6,29.89,ESE,107,0.9,2.5,43,0.00,,,0.00,0.00,Weather logger V3.1.,2017-06-28 09:29:00,
2017-06-28 02:34:00,67.6,44.4,29.89,East,94,0.9,2.5,43,0.00,,,0.00,0.00,Weather logger V3.1.,2017-06-28 09:34:00,
2017-06-28 02:39:00,67.5,44.8,29.88,SE,143,0.0,0.0,44,0.00,,,0.00,0.00,Weather logger V3.1.,2017-06-28 09:39:00,
2017-06-28 02:44:00,67.3,44.6,29.89,East,98,2.5,4.9,44,0.00,,,0.00,0.00,Weather logger V3.1.,2017-06-28 09:44:00,
2017-06-28 02:49:00,67.1,44.4,29.89,SE,139,0.7,2.5,44,0.00,,,0.00,0.00,Weather logger V3.1.,2017-06-28 09:49:00,
2017-06-28 02:54:00,66.9,45.0,29.89,East,100,1.3,2.5,45,0.00,,,0.00,0.00,Weather logger V3.1.,2017-06-28 09:54:00,
2017-06-28 02:59:00,66.7,45.3,29.88,SE,131,2.2,2.5,46,0.00,,,0.00,0.00,Weather logger V3.1.,2017-06-28 09:59:00,
2017-06-28 03:01:00,66.6,44.6,29.89,NE,55,2.2,2.5,45,0.00,,,0.00,0.00,Weather logger V3.1.,2017-06-28 10:01:00,
2017-06-28 03:06:00,66.4,45.0,29.89,ESE,103,0.7,2.5,46,0.00,,,0.00,0.00,Weather logger V3.1.,2017-06-28 10:06:00,
2017-06-28 03:11:00,66.2,45.5,29.89,SE,140,0.0,0.0,47,0.00,,,0.00,0.00,Weather logger V3.1.,2017-06-28 10:11:00,
2017-06-28 03:16:00,66.0,45.9,29.89,ESE,117,0.7,2.5,48,0.00,,,0.00,0.00,Weather logger V3.1.,2017-06-28 10:16:00,
2017-06-28 03:21:00,65.8,45.7,29.89,ESE,114,1.3,2.5,48,0.00,,,0.00,0.00,Weather logger V3.1.,2017-06-28 10:21:00,
2017-06-28 03:27:00,65.7,46.0,29.88,ESE,111,1.8,2.5,49,0.00,,,0.00,0.00,Weather logger V3.1.,2017-06-28 10:27:00,
2017-06-28 03:32:00,65.5,45.9,29.89,ESE,119,1.8,2.5,49,0.00,,,0.00,0.00,Weather logger V3.1.,2017-06-28 10:32:00,
2017-06-28 03:37:00,65.3,45.7,29.89,SE,142,0.0,0.0,49,0.00,,,0.00,0.00,Weather logger V3.1.,2017-06-28 10:37:00,
2017-06-28 03:42:00,65.1,45.0,29.89,SE,139,0.0,0.0,48,0.00,,,0.00,0.00,Weather logger V3.1.,2017-06-28 10:42:00,
2017-06-28 03:47:00,64.9,45.9,29.90,ESE,105,3.4,4.9,50,0.00,,,0.00,0.00,Weather logger V3.1.,2017-06-28 10:47:00,
2017-06-28 03:52:00,64.8,45.7,29.90,SE,142,0.0,0.0,50,0.00,,,0.00,0.00,Weather logger V3.1.,2017-06-28 10:52:00,
2017-06-28 03:57:00,64.6,45.0,29.90,SSE,151,0.0,0.0,49,0.00,,,0.00,0.00,Weather logger V3.1.,2017-06-28 10:57:00,
2017-06-28 04:02:00,64.6,45.0,29.90,NE,34,0.9,2.5,49,0.00,,,0.00,0.00,Weather logger V3.1.,2017-06-28 11:02:00,
2017-06-28 04:07:00,64.4,45.0,29.90,East,79,0.0,0.0,49,0.00,,,0.00,0.00,Weather logger V3.1.,2017-06-28 11:07:00,
2017-06-28 04:12:00,64.2,44.8,29.90,North,6,0.0,0.0,49,0.00,,,0.00,0.00,Weather logger V3.1.,2017-06-28 11:12:00,
2017-06-28 04:17:00,63.9,45.0,29.90,NE,49,0.7,2.5,50,0.00,,,0.00,0.00,Weather logger V3.1.,2017-06-28 11:17:00,
2017-06-28 04:22:00,63.7,44.8,29.91,SE,135,0.0,0.0,50,0.00,,,0.00,0.00,Weather logger V3.1.,2017-06-28 11:22:00,
2017-06-28 04:28:00,63.5,44.6,29.91,NNE,22,0.9,2.5,50,0.00,,,0.00,0.00,Weather logger V3.1.,2017-06-28 11:28:00,
2017-06-28 04:33:00,63.3,44.4,29.91,East,79,0.0,0.0,50,0.00,,,0.00,0.00,Weather logger V3.1.,2017-06-28 11:33:00,
2017-06-28 04:38:00,63.0,44.1,29.90,ESE,119,0.0,0.0,50,0.00,,,0.00,0.00,Weather logger V3.1.,2017-06-28 11:38:00,
2017-06-28 04:43:00,63.0,44.1,29.90,ESE,111,0.0,0.0,50,0.00,,,0.00,0.00,Weather logger V3.1.,2017-06-28 11:43:00,
2017-06-28 04:48:00,63.0,44.6,29.90,SE,138,0.0,0.0,51,0.00,,,0.00,0.00,Weather logger V3.1.,2017-06-28 11:48:00,
2017-06-28 04:53:00,62.8,45.0,29.91,SE,138,0.0,0.0,52,0.00,,,0.00,0.00,Weather logger V3.1.,2017-06-28 11:53:00,
2017-06-28 04:58:00,62.6,44.8,29.90,SE,127,0.0,0.0,52,0.00,,,0.00,0.00,Weather logger V3.1.,2017-06-28 11:58:00,
2017-06-28 05:03:00,62.6,44.2,29.91,SE,134,0.0,0.0,51,0.00,,,0.00,0.00,Weather logger V3.1.,2017-06-28 12:03:00,
2017-06-28 05:08:00,62.4,45.1,29.90,SE,140,0.0,0.0,53,0.00,,,0.00,0.00,Weather logger V3.1.,2017-06-28 12:08:00,
2017-06-28 05:13:00,62.4,45.1,29.91,NE,52,0.0,0.0,53,0.00,,,0.00,0.00,Weather logger V3.1.,2017-06-28 12:13:00,
2017-06-28 05:18:00,62.2,45.0,29.90,NE,53,1.6,2.5,53,0.00,,,0.00,0.00,Weather logger V3.1.,2017-06-28 12:18:00,
2017-06-28 05:23:00,62.2,44.4,29.91,ESE,119,0.0,0.0,52,0.00,,,0.00,0.00,Weather logger V3.1.,2017-06-28 12:23:00,
2017-06-28 05:28:00,62.2,45.0,29.91,ESE,121,0.0,0.0,53,0.00,,,0.00,0.00,Weather logger V3.1.,2017-06-28 12:28:00,
2017-06-28 05:34:00,62.1,44.8,29.91,SE,131,0.0,0.0,53,0.00,,,0.00,0.00,Weather logger V3.1.,2017-06-28 12:34:00,
2017-06-28 05:36:00,61.9,44.6,29.91,ESE,107,0.0,0.0,53,0.00,,,0.00,0.00,Weather logger V3.1.,2017-06-28 12:36:00,
2017-06-28 05:41:00,61.7,44.4,29.92,SE,140,0.0,0.0,53,0.00,,,0.00,0.00,Weather logger V3.1.,2017-06-28 12:41:00,
2017-06-28 05:46:00,61.5,44.2,29.91,SE,139,0.0,0.0,53,0.00,,,0.00,1.60,Weather logger V3.1.,2017-06-28 12:46:00,
2017-06-28 05:51:00,61.3,44.6,29.91,SE,140,0.0,0.0,54,0.00,,,0.00,5.37,Weather logger V3.1.,2017-06-28 12:51:00,
2017-06-28 05:56:00,61.2,45.0,29.92,ESE,112,0.0,0.0,55,0.00,,,0.00,25.43,Weather logger V3.1.,2017-06-28 12:56:00,
2017-06-28 06:01:00,61.0,44.2,29.92,SE,137,0.0,0.0,54,0.00,,,0.00,48.52,Weather logger V3.1.,2017-06-28 13:01:00,
2017-06-28 06:06:00,60.8,44.1,29.92,SE,136,0.0,0.0,54,0.00,,,0.00,71.09,Weather logger V3.1.,2017-06-28 13:06:00,
2017-06-28 06:11:00,60.8,44.1,29.92,SE,138,0.0,0.0,54,0.00,,,0.00,91.61,Weather logger V3.1.,2017-06-28 13:11:00,
2017-06-28 06:16:00,61.0,43.3,29.93,SE,136,0.0,0.0,52,0.00,,,0.00,113.57,Weather logger V3.1.,2017-06-28 13:16:00,
2017-06-28 06:21:00,61.3,42.6,29.92,SE,134,0.0,0.0,50,0.00,,,0.00,134.05,Weather logger V3.1.,2017-06-28 13:21:00,
2017-06-28 06:26:00,61.9,42.6,29.92,SE,139,0.0,0.0,49,0.00,,,0.00,154.98,Weather logger V3.1.,2017-06-28 13:26:00,
2017-06-28 06:31:00,62.4,43.0,29.92,ESE,105,0.0,0.0,49,0.00,,,0.00,173.65,Weather logger V3.1.,2017-06-28 13:31:00,
2017-06-28 06:36:00,63.0,43.0,29.92,ESE,113,2.5,4.9,48,0.00,,,0.00,191.34,Weather logger V3.1.,2017-06-28 13:36:00,
2017-06-28 06:42:00,63.7,42.6,29.92,NE,43,2.5,4.9,46,0.00,,,0.00,212.35,Weather logger V3.1.,2017-06-28 13:42:00,
2017-06-28 06:47:00,64.0,42.8,29.93,SE,132,0.0,0.0,46,0.00,,,0.00,230.33,Weather logger V3.1.,2017-06-28 13:47:00,
2017-06-28 06:52:00,64.6,42.8,29.93,East,94,0.0,0.0,45,0.00,,,0.00,245.97,Weather logger V3.1.,2017-06-28 13:52:00,
2017-06-28 06:57:00,64.9,42.6,29.93,East,96,0.0,0.0,44,0.00,,,0.00,261.97,Weather logger V3.1.,2017-06-28 13:57:00,
2017-06-28 07:02:00,65.3,42.3,29.93,ESE,116,0.0,0.0,43,0.00,,,0.00,277.65,Weather logger V3.1.,2017-06-28 14:02:00,
2017-06-28 07:07:00,66.0,40.5,29.93,NE,51,0.9,2.5,39,0.00,,,0.00,291.24,Weather logger V3.1.,2017-06-28 14:07:00,
2017-06-28 07:12:00,66.6,39.6,29.93,East,79,0.0,0.0,37,0.00,,,0.00,304.33,Weather logger V3.1.,2017-06-28 14:12:00,
2017-06-28 07:17:00,67.3,40.1,29.93,NNE,29,0.0,0.0,37,0.00,,,0.00,316.19,Weather logger V3.1.,2017-06-28 14:17:00,
2017-06-28 07:22:00,67.6,41.9,29.93,East,93,0.0,0.0,39,0.00,,,0.00,323.95,Weather logger V3.1.,2017-06-28 14:22:00,
2017-06-28 07:25:00,67.8,41.4,29.93,SE,130,0.2,2.5,38,0.00,,,0.00,330.92,Weather logger V3.1.,2017-06-28 14:25:00,
2017-06-28 07:30:00,68.0,43.5,29.93,East,91,0.7,2.5,41,0.00,,,0.00,346.89,Weather logger V3.1.,2017-06-28 14:30:00,
2017-06-28 07:33:00,68.0,43.5,29.93,ESE,121,1.3,2.5,41,0.00,,,0.00,354.19,Weather logger V3.1.,2017-06-28 14:33:00,
2017-06-28 07:38:00,67.8,43.9,29.93,ESE,117,1.8,2.5,42,0.00,,,0.00,363.47,Weather logger V3.1.,2017-06-28 14:38:00,
2017-06-28 07:43:00,67.5,41.7,29.93,SE,136,1.8,4.9,39,0.00,,,0.00,370.90,Weather logger V3.1.,2017-06-28 14:43:00,
2017-06-28 07:48:00,67.3,42.8,29.93,NE,49,1.3,2.5,41,0.00,,,0.00,379.02,Weather logger V3.1.,2017-06-28 14:48:00,
2017-06-28 07:51:00,67.3,40.8,29.93,SE,129,2.9,4.9,38,0.00,,,0.00,385.26,Weather logger V3.1.,2017-06-28 14:51:00,
2017-06-28 07:56:00,67.1,43.3,29.93,ESE,107,4.7,4.9,42,0.00,,,0.00,392.40,Weather logger V3.1.,2017-06-28 14:56:00,
2017-06-28 08:01:00,67.1,40.6,29.94,NNE,22,0.0,0.0,38,0.00,,,0.00,400.86,Weather logger V3.1.,2017-06-28 15:01:00,
2017-06-28 08:06:00,67.3,40.1,29.94,ESE,116,3.4,4.9,37,0.00,,,0.00,411.69,Weather logger V3.1.,2017-06-28 15:06:00,
2017-06-28 08:11:00,67.5,41.0,29.94,SSE,155,0.0,0.0,38,0.00,,,0.00,416.99,Weather logger V3.1.,2017-06-28 15:11:00,
2017-06-28 08:16:00,67.6,39.7,29.94,SSW,203,1.3,2.5,36,0.00,,,0.00,424.25,Weather logger V3.1.,2017-06-28 15:16:00,
2017-06-28 08:21:00,68.0,40.8,29.94,ESE,123,0.0,0.0,37,0.00,,,0.00,434.88,Weather logger V3.1.,2017-06-28 15:21:00,
2017-06-28 08:26:00,68.5,38.3,29.94,ESE,114,0.0,0.0,33,0.00,,,0.00,443.62,Weather logger V3.1.,2017-06-28 15:26:00,
2017-06-28 08:31:00,69.3,37.4,29.94,East,79,0.0,0.0,31,0.00,,,0.00,451.01,Weather logger V3.1.,2017-06-28 15:31:00,
2017-06-28 08:36:00,69.6,39.4,29.94,SSE,158,0.0,0.0,33,0.00,,,0.00,457.95,Weather logger V3.1.,2017-06-28 15:36:00,
2017-06-28 08:41:00,70.5,39.4,29.94,ESE,118,0.9,2.5,32,0.00,,,0.00,467.51,Weather logger V3.1.,2017-06-28 15:41:00,
2017-06-28 08:46:00,70.9,41.2,29.94,SSE,163,0.0,0.0,34,0.00,,,0.00,469.73,Weather logger V3.1.,2017-06-28 15:46:00,
2017-06-28 08:52:00,70.9,43.3,29.94,SSE,158,1.6,2.5,37,0.00,,,0.00,473.50,Weather logger V3.1.,2017-06-28 15:52:00,
2017-06-28 08:57:00,71.1,39.7,29.94,East,96,1.3,2.5,32,0.00,,,0.00,482.08,Weather logger V3.1.,2017-06-28 15:57:00,
2017-06-28 09:02:00,71.1,41.4,29.94,ESE,118,0.9,2.5,34,0.00,,,0.00,488.32,Weather logger V3.1.,2017-06-28 16:02:00,
2017-06-28 09:07:00,71.2,40.6,29.94,South,184,1.6,2.5,33,0.00,,,0.00,490.62,Weather logger V3.1.,2017-06-28 16:07:00,
2017-06-28 09:12:00,71.2,41.5,29.94,SSE,160,4.0,4.9,34,0.00,,,0.00,494.68,Weather logger V3.1.,2017-06-28 16:12:00,
2017-06-28 09:17:00,71.4,41.7,29.94,ESE,102,4.7,4.9,34,0.00,,,0.00,500.30,Weather logger V3.1.,2017-06-28 16:17:00,
2017-06-28 09:22:00,71.8,40.5,29.95,SSE,160,1.3,2.5,32,0.00,,,0.00,502.97,Weather logger V3.1.,2017-06-28 16:22:00,
2017-06-28 09:27:00,72.0,41.4,29.95,East,101,3.1,4.9,33,0.00,,,0.00,513.35,Weather logger V3.1.,2017-06-28 16:27:00,
2017-06-28 09:32:00,72.1,40.6,29.95,West,268,1.3,2.5,32,0.00,,,0.00,517.70,Weather logger V3.1.,2017-06-28 16:32:00,
2017-06-28 09:37:00,72.5,42.6,29.94,South,187,1.8,2.5,34,0.00,,,0.00,520.41,Weather logger V3.1.,2017-06-28 16:37:00,
2017-06-28 09:42:00,72.5,43.3,29.94,ESE,121,3.1,4.9,35,0.00,,,0.00,525.50,Weather logger V3.1.,2017-06-28 16:42:00,
2017-06-28 09:47:00,72.7,41.2,29.94,East,98,3.4,4.9,32,0.00,,,0.00,532.40,Weather logger V3.1.,2017-06-28 16:47:00,
2017-06-28 09:52:00,73.0,41.5,29.94,ESE,105,0.7,2.5,32,0.00,,,0.00,537.82,Weather logger V3.1.,2017-06-28 16:52:00,
2017-06-28 09:58:00,73.6,39.4,29.94,SE,140,0.0,0.0,29,0.00,,,0.00,543.03,Weather logger V3.1.,2017-06-28 16:58:00,
2017-06-28 10:03:00,73.9,41.5,29.94,South,188,0.0,0.0,31,0.00,,,0.00,547.58,Weather logger V3.1.,2017-06-28 17:03:00,
2017-06-28 10:06:00,74.1,38.1,29.94,SE,136,1.3,2.5,27,0.00,,,0.00,553.86,Weather logger V3.1.,2017-06-28 17:06:00,
2017-06-28 10:11:00,74.7,42.1,29.94,ESE,123,4.5,4.9,31,0.00,,,0.00,554.36,Weather logger V3.1.,2017-06-28 17:11:00,
2017-06-28 10:16:00,75.0,39.7,29.93,ENE,59,1.3,2.5,28,0.00,,,0.00,557.76,Weather logger V3.1.,2017-06-28 17:16:00,
2017-06-28 10:21:00,75.6,40.3,29.94,SE,128,5.6,7.6,28,0.00,,,0.00,562.60,Weather logger V3.1.,2017-06-28 17:21:00,
2017-06-28 10:26:00,75.6,42.1,29.94,ESE,108,4.0,4.9,30,0.00,,,0.00,566.30,Weather logger V3.1.,2017-06-28 17:26:00,
2017-06-28 10:31:00,75.7,43.9,29.93,SSE,164,4.9,4.9,32,0.00,,,0.00,565.93,Weather logger V3.1.,2017-06-28 17:31:00,
2017-06-28 10:36:00,75.9,37.6,29.94,ESE,106,0.0,0.0,25,0.00,,,0.00,569.62,Weather logger V3.1.,2017-06-28 17:36:00,
2017-06-28 10:41:00,76.1,43.3,29.93,SE,130,1.3,2.5,31,0.00,,,0.00,572.37,Weather logger V3.1.,2017-06-28 17:41:00,
2017-06-28 10:46:00,76.5,36.0,29.93,SW,236,2.9,4.9,23,0.00,,,0.00,575.94,Weather logger V3.1.,2017-06-28 17:46:00,
2017-06-28 10:51:00,76.5,37.0,29.93,SW,215,0.7,2.5,24,0.00,,,0.00,577.26,Weather logger V3.1.,2017-06-28 17:51:00,
2017-06-28 10:56:00,76.6,40.3,29.93,SSE,160,2.5,4.9,27,0.00,,,0.00,576.97,Weather logger V3.1.,2017-06-28 17:56:00,
2017-06-28 11:01:00,76.8,37.4,29.93,East,96,2.9,4.9,24,0.00,,,0.00,578.65,Weather logger V3.1.,2017-06-28 18:01:00,
2017-06-28 11:06:00,76.8,35.2,29.93,SSW,205,4.5,4.9,22,0.00,,,0.00,582.35,Weather logger V3.1.,2017-06-28 18:06:00,
2017-06-28 11:11:00,77.0,37.6,29.93,SSE,161,0.9,2.5,24,0.00,,,0.00,585.67,Weather logger V3.1.,2017-06-28 18:11:00,
2017-06-28 11:16:00,77.0,36.5,29.93,SE,135,6.9,7.6,23,0.00,,,0.00,584.32,Weather logger V3.1.,2017-06-28 18:16:00,
2017-06-28 11:21:00,77.0,35.2,29.93,SW,220,2.9,4.9,22,0.00,,,0.00,582.88,Weather logger V3.1.,2017-06-28 18:21:00,
2017-06-28 11:27:00,77.2,35.4,29.94,SE,132,1.8,2.5,22,0.00,,,0.00,590.39,Weather logger V3.1.,2017-06-28 18:27:00,
2017-06-28 11:32:00,77.4,30.6,29.93,SSW,197,0.0,0.0,18,0.00,,,0.00,593.67,Weather logger V3.1.,2017-06-28 18:32:00,
2017-06-28 11:37:00,77.5,35.8,29.93,ESE,102,3.4,4.9,22,0.00,,,0.00,592.40,Weather logger V3.1.,2017-06-28 18:37:00,
2017-06-28 11:42:00,77.7,36.0,29.94,East,94,3.8,4.9,22,0.00,,,0.00,595.40,Weather logger V3.1.,2017-06-28 18:42:00,
2017-06-28 11:47:00,78.1,35.1,29.93,ESE,122,2.9,4.9,21,0.00,,,0.00,597.70,Weather logger V3.1.,2017-06-28 18:47:00,
2017-06-28 11:52:00,78.4,34.2,29.93,SE,133,3.8,4.9,20,0.00,,,0.00,600.24,Weather logger V3.1.,2017-06-28 18:52:00,
2017-06-28 11:57:00,78.6,27.1,29.93,SSE,154,0.9,2.5,15,0.00,,,0.00,601.02,Weather logger V3.1.,2017-06-28 18:57:00,
2017-06-28 12:02:00,79.0,32.0,29.93,South,191,0.0,0.0,18,0.00,,,0.00,602.33,Weather logger V3.1.,2017-06-28 19:02:00,
2017-06-28 12:07:00,79.5,33.8,29.93,ESE,119,4.9,4.9,19,0.00,,,0.00,605.21,Weather logger V3.1.,2017-06-28 19:07:00,
2017-06-28 12:12:00,79.7,33.8,29.93,SSW,194,1.3,2.5,19,0.00,,,0.00,604.22,Weather logger V3.1.,2017-06-28 19:12:00,
2017-06-28 12:17:00,79.9,34.0,29.93,SE,139,6.3,7.6,19,0.00,,,0.00,606.60,Weather logger V3.1.,2017-06-28 19:17:00,
2017-06-28 12:22:00,79.9,34.0,29.93,SW,217,2.5,4.9,19,0.00,,,0.00,602.00,Weather logger V3.1.,2017-06-28 19:22:00,
2017-06-28 12:27:00,80.1,28.4,29.93,ESE,112,3.4,4.9,15,0.00,,,0.00,600.65,Weather logger V3.1.,2017-06-28 19:27:00,
2017-06-28 12:32:00,80.1,23.0,29.93,SSW,203,2.5,4.9,12,0.00,,,0.00,603.40,Weather logger V3.1.,2017-06-28 19:32:00,
2017-06-28 12:38:00,80.2,30.0,29.94,ESE,114,3.1,4.9,16,0.00,,,0.00,604.67,Weather logger V3.1.,2017-06-28 19:38:00,
2017-06-28 12:43:00,80.4,23.2,29.93,ESE,123,1.3,2.5,12,0.00,,,0.00,606.72,Weather logger V3.1.,2017-06-28 19:43:00,
2017-06-28 12:48:00,81.0,23.7,29.93,SE,143,3.8,4.9,12,0.00,,,0.00,611.03,Weather logger V3.1.,2017-06-28 19:48:00,
2017-06-28 12:53:00,81.3,21.9,29.93,SE,140,4.9,4.9,11,0.00,,,0.00,609.27,Weather logger V3.1.,2017-06-28 19:53:00,
2017-06-28 12:58:00,81.7,22.1,29.93,East,99,3.8,4.9,11,0.00,,,0.00,607.22,Weather logger V3.1.,2017-06-28 19:58:00,
2017-06-28 13:03:00,82.0,22.5,29.93,ESE,107,2.9,4.9,11,0.00,,,0.00,612.31,Weather logger V3.1.,2017-06-28 20:03:00,
2017-06-28 13:08:00,82.6,25.0,29.93,SE,146,3.1,4.9,12,0.00,,,0.00,616.00,Weather logger V3.1.,2017-06-28 20:08:00,
2017-06-28 13:11:00,82.9,20.8,29.92,SE,128,2.9,4.9,10,0.00,,,0.00,615.14,Weather logger V3.1.,2017-06-28 20:11:00,
2017-06-28 13:16:00,83.5,25.5,29.92,SSE,164,3.4,4.9,12,0.00,,,0.00,617.68,Weather logger V3.1.,2017-06-28 20:16:00,
2017-06-28 13:21:00,83.8,21.6,29.93,ESE,111,3.1,4.9,10,0.00,,,0.00,616.86,Weather logger V3.1.,2017-06-28 20:21:00,
2017-06-28 13:26:00,84.2,24.1,29.92,SSE,154,4.7,7.6,11,0.00,,,0.00,618.05,Weather logger V3.1.,2017-06-28 20:26:00,
2017-06-28 13:31:00,84.4,24.3,29.92,ESE,104,2.5,2.5,11,0.00,,,0.00,617.44,Weather logger V3.1.,2017-06-28 20:31:00,
2017-06-28 13:37:00,84.6,26.4,29.92,SSE,152,6.9,7.6,12,0.00,,,0.00,616.08,Weather logger V3.1.,2017-06-28 20:37:00,
2017-06-28 13:42:00,84.6,24.3,29.91,ENE,68,2.5,2.5,11,0.00,,,0.00,613.91,Weather logger V3.1.,2017-06-28 20:42:00,
2017-06-28 13:47:00,84.6,24.3,29.91,South,187,4.0,7.6,11,0.00,,,0.00,614.89,Weather logger V3.1.,2017-06-28 20:47:00,
2017-06-28 13:52:00,84.7,22.3,29.91,SE,129,6.0,7.6,10,0.00,,,0.00,613.78,Weather logger V3.1.,2017-06-28 20:52:00,
2017-06-28 13:57:00,84.7,24.4,29.91,SSE,150,1.8,2.5,11,0.00,,,0.00,612.80,Weather logger V3.1.,2017-06-28 20:57:00,
2017-06-28 14:02:00,84.7,26.6,29.91,SSW,199,3.1,4.9,12,0.00,,,0.00,610.21,Weather logger V3.1.,2017-06-28 21:02:00,
2017-06-28 14:07:00,84.7,24.4,29.91,SSE,150,3.1,4.9,11,0.00,,,0.00,611.57,Weather logger V3.1.,2017-06-28 21:07:00,
2017-06-28 14:12:00,84.9,24.6,29.90,SE,136,2.2,2.5,11,0.00,,,0.00,611.44,Weather logger V3.1.,2017-06-28 21:12:00,
2017-06-28 14:17:00,85.1,22.5,29.91,East,97,3.1,4.9,10,0.00,,,0.00,610.87,Weather logger V3.1.,2017-06-28 21:17:00,
2017-06-28 14:22:00,85.1,24.8,29.90,SE,136,3.8,7.6,11,0.00,,,0.00,609.68,Weather logger V3.1.,2017-06-28 21:22:00,
2017-06-28 14:27:00,85.1,24.8,29.89,ESE,119,2.2,2.5,11,0.00,,,0.00,606.40,Weather logger V3.1.,2017-06-28 21:27:00,
2017-06-28 14:32:00,85.5,22.8,29.89,SE,127,6.0,7.6,10,0.00,,,0.00,607.55,Weather logger V3.1.,2017-06-28 21:32:00,
2017-06-28 14:38:00,85.5,25.0,29.89,South,184,2.9,4.9,11,0.00,,,0.00,604.75,Weather logger V3.1.,2017-06-28 21:38:00,
2017-06-28 14:43:00,85.6,22.8,29.89,East,79,4.9,7.6,10,0.00,,,0.00,602.91,Weather logger V3.1.,2017-06-28 21:43:00,
2017-06-28 14:48:00,85.8,23.0,29.89,East,101,1.8,2.5,10,0.00,,,0.00,550.05,Weather logger V3.1.,2017-06-28 21:48:00,
2017-06-28 14:53:00,86.0,23.2,29.89,ESE,112,3.8,4.9,10,0.00,,,0.00,607.26,Weather logger V3.1.,2017-06-28 21:53:00,
2017-06-28 14:58:00,86.4,23.4,29.89,ESE,116,5.4,7.6,10,0.00,,,0.00,605.45,Weather logger V3.1.,2017-06-28 21:58:00,
2017-06-28 15:02:00,86.5,23.5,29.88,NE,35,0.0,0.0,10,0.00,,,0.00,607.87,Weather logger V3.1.,2017-06-28 22:02:00,
2017-06-28 15:07:00,87.3,24.1,29.88,ESE,107,0.0,0.0,10,0.00,,,0.00,562.11,Weather logger V3.1.,2017-06-28 22:07:00,
2017-06-28 15:13:00,87.6,24.4,29.88,ENE,73,1.3,2.5,10,0.00,,,0.00,609.47,Weather logger V3.1.,2017-06-28 22:13:00,
2017-06-28 15:18:00,88.0,24.6,29.88,ESE,120,4.7,4.9,10,0.00,,,0.00,609.56,Weather logger V3.1.,2017-06-28 22:18:00,
2017-06-28 15:23:00,88.2,24.8,29.88,East,98,4.0,4.9,10,0.00,,,0.00,603.97,Weather logger V3.1.,2017-06-28 22:23:00,
2017-06-28 15:28:00,88.3,25.0,29.88,ESE,107,3.8,4.9,10,0.00,,,0.00,602.17,Weather logger V3.1.,2017-06-28 22:28:00,
2017-06-28 15:33:00,88.3,25.0,29.88,ESE,116,4.9,4.9,10,0.00,,,0.00,598.31,Weather logger V3.1.,2017-06-28 22:33:00,
2017-06-28 15:38:00,88.0,24.6,29.88,East,95,7.8,10.1,10,0.00,,,0.00,593.67,Weather logger V3.1.,2017-06-28 22:38:00,
2017-06-28 15:43:00,88.0,24.6,29.88,SE,124,1.6,2.5,10,0.00,,,0.00,590.80,Weather logger V3.1.,2017-06-28 22:43:00,
2017-06-28 15:48:00,88.0,24.6,29.87,East,79,4.9,7.6,10,0.00,,,0.00,593.67,Weather logger V3.1.,2017-06-28 22:48:00,
2017-06-28 15:53:00,88.0,24.6,29.87,ESE,102,3.1,4.9,10,0.00,,,0.00,589.73,Weather logger V3.1.,2017-06-28 22:53:00,
2017-06-28 15:58:00,88.0,24.6,29.87,ESE,115,6.3,7.6,10,0.00,,,0.00,586.37,Weather logger V3.1.,2017-06-28 22:58:00,
2017-06-28 15:59:00,88.0,24.6,29.87,ESE,119,3.8,4.9,10,0.00,,,0.00,585.67,Weather logger V3.1.,2017-06-28 22:59:00,
2017-06-28 16:04:00,88.2,24.8,29.86,SE,126,4.9,7.6,10,0.00,,,0.00,583.62,Weather logger V3.1.,2017-06-28 23:04:00,
2017-06-28 16:09:00,88.3,25.0,29.87,SE,134,6.0,10.1,10,0.00,,,0.00,580.83,Weather logger V3.1.,2017-06-28 23:09:00,
2017-06-28 16:14:00,88.3,25.0,29.86,East,95,6.9,10.1,10,0.00,,,0.00,576.15,Weather logger V3.1.,2017-06-28 23:14:00,
2017-06-28 16:19:00,88.3,25.0,29.87,ESE,110,2.5,4.9,10,0.00,,,0.00,573.32,Weather logger V3.1.,2017-06-28 23:19:00,
2017-06-28 16:24:00,88.7,29.7,29.87,ENE,60,3.1,4.9,12,0.00,,,0.00,572.54,Weather logger V3.1.,2017-06-28 23:24:00,
2017-06-28 16:30:00,89.2,25.7,29.86,SE,126,4.7,7.6,10,0.00,,,0.00,568.51,Weather logger V3.1.,2017-06-28 23:30:00,
2017-06-28 16:35:00,89.6,25.9,29.86,SSE,149,4.0,7.6,10,0.00,,,0.00,566.67,Weather logger V3.1.,2017-06-28 23:35:00,
2017-06-28 16:40:00,89.4,25.7,29.86,ESE,118,2.9,4.9,10,0.00,,,0.00,559.77,Weather logger V3.1.,2017-06-28 23:40:00,
2017-06-28 16:45:00,89.6,25.9,29.87,East,99,6.5,7.6,10,0.00,,,0.00,553.78,Weather logger V3.1.,2017-06-28 23:45:00,
2017-06-28 16:50:00,89.4,25.7,29.86,SE,144,4.5,4.9,10,0.00,,,0.00,549.59,Weather logger V3.1.,2017-06-28 23:50:00,
2017-06-28 16:55:00,89.4,25.7,29.86,SE,143,1.8,2.5,10,0.00,,,0.00,546.93,Weather logger V3.1.,2017-06-28 23:55:00,
2017-06-28 17:00:00,89.2,25.7,29.86,SE,127,2.5,4.9,10,0.00,,,0.00,542.90,Weather logger V3.1.,2017-06-29 00:00:00,